Theta_e
351 353 352 351 351 351 352 353 352 351 351 351 351 351 351 351 350 349 350 349 349 350 351 351 350 350 349 348 348 348 351 354 354 356 359 359 358 356 358 362 362 359 359 359 357 356 357 359 357 357 359 358 357 356 354 354 354 355 356 357 358 359 360 361 361 361 360 358 358 357 356 355 355 358 359 358 357 358 359 358 358 358 355 355 357
351 352 352 351 351 351 351 352 352 351 350 351 351 351 351 351 350 350 350 350 351 351 352 353 352 351 350 349 349 349 352 355 354 355 357 358 358 356 355 358 360 359 359 360 359 356 357 359 358 358 359 359 358 356 353 352 353 354 354 354 355 357 358 359 360 360 360 358 358 358 357 357 357 357 359 360 359 359 359 357 356 356 355 354 356
352 353 354 351 351 351 350 350 351 350 350 350 350 349 349 350 350 350 350 351 352 353 353 354 353 353 352 350 351 351 352 354 354 354 355 357 358 356 355 357 359 359 359 359 358 356 356 358 357 357 356 357 358 357 355 356 357 357 356 356 356 357 357 359 360 360 360 359 358 358 357 357 358 357 358 360 361 360 359 358 355 355 355 355 354
352 354 355 353 351 350 349 349 349 350 349 349 350 349 349 349 350 350 350 351 352 354 355 355 355 356 354 353 353 353 353 354 354 354 355 356 357 357 357 357 357 358 357 357 357 357 357 357 356 356 356 358 359 357 357 359 359 359 358 358 358 357 358 359 360 360 360 359 358 358 357 358 358 357 358 359 359 358 359 358 356 355 356 355 353
353 355 356 354 351 349 348 348 348 349 349 348 348 348 348 349 350 351 351 351 353 355 356 355 356 357 355 354 355 355 355 354 355 355 355 356 356 356 357 357 357 357 357 358 358 357 357 358 357 357 356 357 357 356 359 361 361 360 359 359 359 359 359 358 359 360 359 359 358 357 356 357 358 358 358 358 358 357 357 357 356 356 356 354 353
354 356 356 354 352 349 347 347 347 347 348 348 347 347 347 348 351 352 352 352 353 355 356 355 356 356 356 355 354 355 355 355 356 356 355 355 355 355 356 356 357 357 357 358 358 358 358 358 358 357 357 357 356 356 359 361 360 359 360 360 359 359 359 359 359 359 358 358 358 357 357 357 358 358 358 358 358 357 356 355 354 354 355 354 353
357 357 357 356 354 351 347 346 347 346 347 348 347 347 348 347 349 352 352 352 352 353 355 355 356 356 355 355 354 355 356 356 356 356 356 355 355 356 356 356 357 357 357 358 358 358 358 358 358 358 358 358 356 356 358 359 358 359 360 360 360 358 359 359 359 358 358 358 357 356 356 356 357 357 357 358 358 358 359 357 353 352 353 355 354
359 360 359 357 356 355 351 348 348 347 347 348 347 347 348 347 348 350 351 351 352 351 352 354 355 355 355 355 354 354 356 357 357 356 356 356 355 356 356 356 356 356 357 358 357 357 357 356 356 357 358 360 358 357 358 358 358 359 359 360 360 359 359 358 358 358 357 357 356 356 356 356 356 355 354 355 355 356 358 356 353 351 351 354 354
360 360 360 359 358 358 356 352 350 350 349 349 349 348 348 348 348 349 350 351 350 349 350 351 353 353 354 354 354 354 355 357 357 356 356 356 356 355 355 356 356 355 355 357 357 357 358 356 355 355 357 358 357 354 354 354 356 357 360 361 359 357 358 358 358 358 357 356 356 356 356 355 355 355 352 350 349 350 352 352 352 350 349 350 351
360 360 360 360 360 360 360 358 355 354 354 354 354 352 349 348 349 349 350 350 350 349 349 349 350 351 352 354 354 354 354 355 356 355 355 356 355 354 355 355 356 355 355 355 355 356 357 355 356 357 354 352 353 353 352 352 354 355 358 359 358 356 357 357 357 357 357 357 355 355 355 354 355 355 354 350 349 349 350 350 351 349 347 348 349
357 359 359 360 361 361 361 361 360 358 358 357 357 356 352 349 349 349 349 350 350 351 350 350 349 349 350 352 352 352 352 352 354 354 354 353 352 352 354 355 356 356 354 353 353 354 355 355 359 360 357 354 356 357 355 353 353 353 353 355 356 356 357 356 356 357 356 356 355 354 355 354 354 355 355 353 353 353 353 352 350 348 347 347 348
356 357 358 358 361 362 361 362 362 361 360 360 359 359 356 353 351 351 350 351 351 352 352 352 351 349 349 350 351 351 351 351 353 353 351 350 348 349 352 353 354 354 353 352 351 352 355 355 357 361 361 357 355 357 358 356 354 354 354 355 355 355 355 355 355 355 356 356 355 354 355 354 353 354 353 352 351 352 353 352 351 350 349 348 347
357 356 357 358 360 362 362 362 362 361 362 362 360 360 358 356 354 352 353 352 352 352 353 353 352 351 350 350 351 351 351 352 353 351 350 348 347 348 350 352 353 353 353 353 352 353 355 356 357 360 360 356 354 356 360 360 358 356 355 356 355 354 354 353 352 352 352 354 355 354 353 352 352 353 352 349 349 349 350 350 350 350 348 344 340
356 356 356 357 359 361 361 362 362 362 362 362 361 361 360 359 357 354 355 355 354 354 355 354 353 352 352 352 353 352 352 352 353 351 349 348 347 347 348 351 353 352 354 357 357 358 360 360 359 358 355 353 353 356 359 360 360 358 357 356 353 351 350 349 349 350 349 350 351 350 347 346 346 346 345 345 346 348 348 347 347 344 338 333 331
356 356 357 357 359 360 361 362 361 362 363 362 363 362 361 360 359 357 357 357 356 357 356 354 354 354 354 354 353 352 350 351 352 351 349 348 348 347 348 351 353 352 355 360 362 362 363 361 359 356 352 349 350 353 357 359 360 358 356 353 350 348 348 346 346 347 347 345 343 341 340 340 339 337 338 339 340 342 344 343 341 337 332 329 328
355 357 356 355 358 360 361 361 360 361 362 362 362 362 362 361 360 359 358 357 357 358 357 356 355 355 356 356 354 352 351 351 351 350 349 348 347 347 350 353 355 355 357 361 363 362 361 359 357 357 355 352 352 353 353 355 358 356 350 348 347 346 345 343 342 342 342 340 336 332 331 330 329 328 331 334 336 339 340 339 337 335 333 331 329
355 356 355 354 357 359 358 359 359 359 360 361 361 362 362 362 361 360 358 358 358 357 357 357 356 356 357 358 357 355 353 353 352 350 349 348 347 349 353 356 358 359 360 362 362 359 357 356 356 356 356 354 354 353 352 352 354 351 346 344 344 342 338 336 336 337 337 334 329 323 321 321 321 323 325 328 334 337 338 336 337 336 334 331 328
355 356 355 353 354 355 355 357 359 359 360 361 360 360 361 362 362 361 360 359 358 357 357 357 357 357 358 358 357 356 354 355 353 350 349 348 347 351 356 358 358 360 361 361 359 357 355 355 354 354 354 354 353 353 352 351 351 349 344 342 342 338 333 330 329 329 328 326 323 320 320 320 319 319 319 322 328 333 334 335 336 335 331 328 326
354 353 353 354 356 356 356 358 359 359 360 360 359 360 361 362 362 362 360 360 359 358 358 358 358 359 358 358 358 357 356 355 352 349 348 347 347 352 358 359 359 360 360 358 357 355 353 353 353 352 352 353 352 352 351 350 349 347 344 341 340 337 332 328 327 327 327 326 325 324 324 323 320 318 317 318 320 323 327 332 333 330 327 327 327
353 350 351 354 357 358 358 359 358 358 359 359 359 360 361 361 362 362 360 359 359 359 359 358 358 357 357 357 356 355 355 353 350 348 348 347 347 351 356 357 357 358 358 356 355 353 352 351 351 350 349 349 350 351 350 349 348 346 344 342 339 336 333 332 331 331 330 327 325 324 326 326 324 322 321 320 319 319 323 327 329 327 327 327 326
352 349 350 353 355 356 357 357 357 357 358 358 358 358 359 359 360 360 359 358 359 359 359 357 356 355 354 355 354 353 353 351 349 347 347 347 346 349 352 354 354 355 355 354 353 352 351 350 350 349 347 347 349 349 348 348 348 347 345 343 339 337 334 332 331 329 325 323 322 324 326 327 325 324 323 323 322 321 322 324 325 326 326 326 324
349 348 349 349 350 353 354 355 356 355 354 355 356 355 355 355 356 357 357 357 357 358 357 355 354 353 352 352 350 349 348 347 346 346 346 346 346 347 350 352 352 353 353 353 352 350 349 349 349 348 347 348 349 348 347 346 347 347 346 343 339 336 333 331 328 323 319 321 324 325 325 325 325 324 323 323 322 322 322 321 319 320 321 322 321
345 346 346 345 346 348 348 350 353 353 353 354 353 353 353 353 353 354 354 354 355 355 354 353 351 350 348 346 345 344 343 343 345 346 346 347 348 348 349 350 350 351 351 350 350 349 348 348 347 346 346 347 347 346 345 346 345 345 345 342 337 334 331 327 323 319 319 323 326 326 325 325 324 324 323 322 321 321 321 320 319 319 319 318 318
343 345 344 344 345 345 346 348 349 350 351 352 352 352 352 352 352 353 353 353 353 353 351 350 349 347 344 342 342 341 340 342 344 345 345 346 347 347 348 348 349 349 348 347 347 347 347 346 345 344 344 344 343 341 341 343 343 342 342 339 334 331 328 322 319 320 323 326 326 325 325 325 324 324 323 322 322 320 320 320 319 320 319 319 318
343 343 342 343 344 344 345 346 346 347 348 349 350 351 351 352 352 352 352 351 351 351 348 347 346 345 343 341 339 338 337 339 342 343 342 342 343 344 345 346 347 347 346 346 345 345 345 344 342 341 342 341 340 339 339 340 340 339 337 333 330 327 323 320 321 324 326 326 325 325 325 325 324 324 323 323 322 321 320 320 319 319 319 318 318
340 339 339 339 340 342 343 342 342 343 345 346 347 348 349 351 350 350 350 350 349 348 345 343 342 340 338 336 336 336 336 336 337 338 339 339 340 342 342 344 345 345 344 344 343 342 341 340 339 339 340 340 340 339 338 337 336 334 332 330 328 327 324 323 325 327 326 325 325 325 325 324 324 324 324 323 323 322 321 321 320 319 319 318 317
338 337 336 336 336 338 339 338 339 340 341 342 344 345 346 347 347 346 346 346 345 343 340 338 337 335 333 332 332 334 334 334 334 336 337 338 340 341 342 343 344 343 342 341 340 339 338 338 338 338 338 338 337 336 335 334 332 331 331 330 330 329 328 326 326 327 326 326 326 325 324 323 323 324 324 323 323 323 322 321 320 319 319 318 318
337 336 335 334 333 333 333 333 335 336 337 338 339 339 340 340 340 340 341 342 342 340 338 337 336 334 333 332 331 332 332 333 334 335 337 338 339 339 340 341 341 341 339 337 336 337 337 337 336 336 336 335 334 334 333 333 333 333 332 332 331 329 328 327 327 327 326 326 326 325 324 324 324 323 323 322 322 322 321 320 320 319 319 319 318
337 336 335 334 333 331 330 330 330 331 332 333 334 334 334 335 336 336 336 338 338 338 338 338 336 335 335 333 333 333 332 331 333 335 336 337 337 336 337 338 337 337 336 335 336 336 336 336 335 334 334 334 334 334 334 334 334 332 331 330 328 327 327 326 326 326 326 326 326 325 325 324 323 322 321 320 320 318 318 319 319 318 318 318 318
337 336 335 334 333 332 331 330 329 329 329 330 330 329 330 332 334 334 333 334 336 337 338 337 336 335 334 332 332 333 332 331 332 333 335 336 337 336 336 336 335 335 335 335 336 337 336 336 335 334 333 333 334 333 332 331 330 329 328 327 326 326 326 326 326 326 326 326 325 325 324 324 322 321 319 318 317 316 316 318 318 318 318 318 317
337 336 334 333 333 333 332 331 331 331 330 330 329 327 326 326 328 330 331 333 334 335 335 335 333 332 331 329 328 328 329 329 330 331 333 334 335 336 336 335 335 335 336 336 337 338 337 336 335 335 334 333 332 331 330 329 329 328 327 326 327 327 327 326 326 326 326 326 324 324 324 322 321 319 318 317 317 317 317 318 318 318 317 317 317
337 336 334 333 333 333 333 332 332 332 331 331 331 330 327 324 324 325 327 329 330 330 330 330 329 328 326 325 325 325 327 328 329 329 330 331 332 333 334 334 335 335 336 337 338 337 336 335 335 334 333 331 330 329 329 329 328 327 327 327 327 327 326 327 327 326 326 325 324 323 323 321 320 318 317 317 318 318 318 318 317 317 316 316 315
337 335 334 334 334 334 334 334 333 333 333 332 331 331 330 328 325 323 322 323 323 323 324 324 323 322 322 322 323 325 326 327 328 328 328 328 328 329 331 333 334 334 335 336 337 336 335 334 333 332 330 329 329 329 329 329 328 328 328 327 327 327 327 328 327 326 325 325 324 323 322 320 318 318 317 317 317 317 317 317 316 316 316 316 315
335 334 334 334 334 334 334 334 333 333 333 332 331 331 330 330 329 327 325 324 323 321 320 319 318 318 317 317 320 323 326 327 328 329 329 328 327 326 327 330 332 333 335 336 336 335 333 332 331 330 329 329 328 328 328 329 328 328 328 327 327 328 329 328 327 326 325 324 323 322 321 319 318 318 317 317 316 316 316 316 316 316 316 315 315
332 332 332 332 332 332 332 332 332 332 332 331 330 329 328 328 328 327 327 327 326 324 322 319 317 316 314 314 317 321 325 328 329 329 328 328 327 327 327 329 331 333 334 335 335 334 332 331 331 330 330 330 329 329 329 329 329 329 328 328 328 329 328 327 327 326 325 324 323 322 320 319 318 317 317 317 316 316 316 316 315 315 315 314 314
330 330 330 329 329 329 330 330 330 329 329 327 325 323 322 322 322 322 322 322 322 322 321 318 315 312 311 312 314 320 325 328 329 329 328 328 330 332 333 332 331 332 333 333 333 333 332 331 331 331 331 330 330 330 329 329 329 329 328 328 328 327 327 327 326 325 324 323 322 321 319 318 318 318 318 317 316 316 316 315 314 314 313 312 312
330 330 330 329 328 327 328 328 328 326 324 323 321 319 318 318 318 319 319 320 320 320 320 320 317 316 315 314 313 318 325 328 328 327 327 328 331 334 333 331 331 331 331 331 332 332 331 331 331 331 330 330 330 329 329 329 330 330 328 328 328 327 326 326 325 324 324 322 321 320 319 319 318 318 318 317 316 316 315 315 314 314 312 311 311
332 333 333 332 330 327 327 327 327 325 323 321 320 319 319 318 318 318 318 319 320 320 322 323 322 323 322 319 315 319 326 328 327 327 328 329 331 332 331 330 331 331 330 331 331 331 330 330 330 330 330 330 330 330 329 330 331 330 329 329 329 327 326 325 324 324 323 322 321 320 319 319 318 318 317 316 316 315 315 314 314 313 313 312 312
332 333 333 332 331 330 330 330 329 327 325 323 322 321 320 319 319 319 319 319 319 321 323 324 323 324 324 321 320 322 327 329 329 329 329 329 329 330 330 330 330 330 330 330 330 329 329 329 329 329 329 330 330 330 329 329 330 330 329 329 328 326 325 324 323 323 322 321 320 320 319 319 318 317 316 316 315 315 314 314 313 312 312 311 311
330 331 332 332 332 331 332 332 331 330 329 328 326 325 324 323 322 322 322 321 320 321 323 324 325 326 325 324 324 326 329 330 330 330 329 329 329 329 328 328 328 328 328 328 328 328 328 328 329 329 329 329 329 329 329 329 330 330 329 327 326 325 324 323 323 322 321 321 320 319 318 318 317 316 316 315 314 314 313 313 312 312 311 310 309
330 330 331 331 331 331 331 331 331 331 331 331 330 330 329 328 327 326 325 324 323 323 324 325 326 326 326 326 327 328 329 329 330 329 329 328 328 328 327 327 327 327 327 327 328 327 328 328 328 328 328 327 327 327 327 327 327 327 326 324 324 324 323 322 322 321 320 319 319 318 318 317 316 316 315 314 312 313 313 312 311 311 310 309 308
330 330 331 331 331 331 330 331 331 331 331 331 331 330 330 329 329 328 328 327 326 325 325 325 325 324 324 325 326 327 327 328 328 328 328 327 327 327 327 327 327 327 326 326 327 327 327 327 327 326 326 326 326 325 326 325 324 324 324 323 323 322 322 321 321 320 319 319 318 318 317 316 315 314 314 312 312 312 312 311 310 309 308 308 308
331 330 331 330 330 329 330 330 330 331 330 330 330 330 330 330 329 329 328 328 327 326 326 326 325 324 323 323 325 326 327 327 327 327 326 326 326 326 326 325 326 326 326 325 325 325 325 325 325 325 325 325 325 324 324 323 323 323 323 322 322 322 321 321 320 319 318 318 317 317 316 315 314 314 313 312 312 312 311 310 309 308 308 307 307
330 330 330 329 329 329 329 329 329 329 329 330 329 329 329 328 328 328 327 327 326 326 326 326 325 324 323 322 323 326 326 325 326 326 326 326 326 326 325 325 326 326 325 325 325 325 324 324 324 324 324 324 324 324 323 322 322 321 321 321 321 320 320 319 319 318 318 317 316 316 315 314 314 313 313 312 311 311 310 309 308 307 307 306 306
328 327 327 327 327 328 328 328 327 327 327 328 327 327 327 326 326 326 325 325 324 324 325 325 325 324 323 323 323 324 325 325 325 326 326 325 326 325 325 326 326 325 325 325 325 324 324 323 323 323 323 323 323 323 322 322 321 321 321 320 319 319 319 318 318 317 317 316 315 315 314 314 313 313 312 312 311 310 309 308 307 307 306 305 305
326 325 325 325 325 326 326 326 326 325 325 325 324 324 323 323 324 324 324 324 324 323 323 323 323 323 323 323 322 323 324 324 325 326 326 325 325 325 325 326 325 325 324 324 324 324 323 323 323 323 322 322 321 321 320 320 320 320 319 319 319 318 318 317 316 316 315 314 314 313 313 313 312 311 310 310 309 309 308 307 306 306 305 305 304
324 324 324 324 324 324 324 324 324 323 323 322 322 321 321 320 321 322 323 324 323 323 323 323 322 322 322 323 322 322 323 324 325 325 326 326 325 326 325 325 325 324 324 323 323 323 323 322 322 322 321 320 319 319 318 317 317 317 317 317 316 316 315 314 314 314 313 313 313 312 312 312 311 310 308 308 308 308 307 306 305 305 304 304 303
322 323 323 323 323 323 323 323 322 322 322 321 321 320 319 318 318 320 321 322 321 322 322 323 322 322 322 322 323 322 322 323 324 325 326 325 325 325 325 325 324 323 323 323 322 321 321 321 320 319 319 318 317 316 315 315 314 313 313 313 313 312 312 312 312 312 311 311 312 311 311 311 310 309 308 307 307 306 306 305 304 304 304 303 303
321 322 322 322 323 322 322 322 321 321 321 320 319 318 317 317 318 319 320 320 320 320 322 322 322 322 322 323 323 323 324 324 324 325 325 325 324 324 323 323 323 322 322 321 320 319 319 318 318 317 316 315 315 314 313 312 311 310 310 310 310 309 309 310 310 309 309 310 310 310 309 309 308 307 306 306 305 305 305 304 304 303 303 303 303
319 320 320 320 320 321 320 320 319 319 318 318 318 317 317 317 318 318 319 319 319 320 321 321 321 321 322 322 323 324 324 324 324 324 324 324 323 322 322 321 321 320 319 319 318 317 317 316 315 315 314 313 313 312 311 310 309 309 309 309 308 308 308 307 307 307 308 309 309 308 308 307 306 306 305 305 304 304 303 303 303 303 302 302 302
318 318 318 318 318 318 317 317 317 317 317 317 317 317 317 318 318 318 318 319 320 320 320 320 321 321 321 322 323 323 323 323 323 323 322 322 321 320 320 319 319 318 317 317 316 316 315 314 314 313 312 311 310 309 309 308 308 308 308 307 307 306 305 304 304 305 306 307 307 307 306 306 306 305 305 304 304 303 302 302 302 302 302 302 302
Wind_Speed
20 20 20 19 19 19 20 20 19 18 16 15 15 15 14 14 13 13 12 12 12 12 12 11 11 11 11 11 11 11 10 10 10 9 9 9 9 8 7 7 7 7 7 7 7 7 6 7 7 7 6 7 7 7 6 6 6 6 6 6 7 7 6 7 8 9 9 8 8 9 9 8 6 4 5 7 7 7 8 8 9 9 8 6 6
19 19 19 19 20 20 20 20 20 19 18 17 16 16 15 14 14 13 13 13 12 12 12 12 11 11 11 11 11 11 11 10 10 10 10 10 10 10 10 9 9 9 8 8 8 8 7 7 8 7 7 7 7 7 7 7 6 7 7 7 8 8 7 7 8 9 10 9 9 9 9 7 7 6 6 7 7 7 8 9 8 7 7 5 4
20 19 19 20 20 20 20 20 20 20 19 18 18 17 16 15 15 14 13 13 13 12 12 12 12 12 12 11 11 11 11 11 11 11 11 11 11 10 9 9 9 9 9 9 9 9 8 8 8 8 7 6 6 7 7 6 7 7 7 7 7 8 7 7 8 9 10 10 9 10 9 8 8 7 7 7 8 8 8 8 7 6 6 5 4
20 20 20 20 20 20 20 20 20 21 21 19 18 18 17 16 16 15 14 13 13 12 12 12 12 12 13 12 13 13 13 12 12 12 12 12 11 11 10 9 9 9 9 9 8 8 8 9 8 7 7 6 6 7 7 6 6 6 7 7 7 7 7 6 7 8 10 10 9 10 10 9 9 8 7 8 9 8 7 7 7 6 5 4 2
19 20 20 20 20 20 21 21 21 21 21 20 20 19 18 17 16 16 16 15 13 13 13 13 13 13 14 14 14 14 13 13 12 12 12 12 11 11 11 10 10 10 10 9 9 9 9 9 8 7 7 7 7 7 6 6 6 7 7 7 6 6 6 6 7 8 9 10 10 10 10 9 9 8 7 8 8 8 7 6 6 6 6 5 3
19 19 19 19 20 20 21 21 21 21 21 21 20 19 19 18 17 17 16 16 15 14 14 14 14 14 14 14 14 14 13 13 13 12 12 12 12 11 11 11 11 11 11 10 10 10 10 9 9 8 8 8 7 7 6 6 7 7 7 7 7 6 6 6 6 7 8 10 10 10 10 9 8 8 7 8 8 7 7 7 7 6 6 5 3
21 21 20 19 19 20 21 21 20 20 21 20 20 19 19 19 18 17 17 17 16 16 15 15 14 14 14 14 14 14 13 13 13 13 12 12 11 11 11 11 11 11 11 10 10 10 10 10 10 10 9 9 9 8 7 7 8 8 7 7 7 7 7 7 7 7 8 9 9 10 10 8 8 9 9 8 8 8 7 6 7 7 6 4 2
20 21 21 20 20 20 21 20 20 19 19 19 19 19 19 19 19 18 18 18 18 17 16 15 15 14 14 14 14 13 13 13 13 13 13 12 11 11 11 11 11 11 10 10 11 11 11 11 11 10 10 10 10 9 8 7 8 8 7 6 6 6 7 7 7 7 8 9 8 8 8 7 8 10 11 9 8 8 7 5 7 8 5 4 2
20 20 20 21 21 20 20 20 20 19 18 18 19 19 19 18 18 18 18 17 17 17 17 16 15 15 14 13 13 13 13 13 13 13 12 12 11 11 11 11 11 11 10 11 11 10 10 10 10 9 9 10 12 11 10 9 9 8 6 6 6 6 7 7 7 7 7 8 8 7 7 8 9 9 10 11 12 12 10 8 10 10 3 3 2
21 21 20 21 21 20 20 19 19 20 20 19 20 20 20 19 18 18 18 17 17 17 16 16 15 15 14 13 13 13 13 13 13 14 13 11 10 10 10 10 10 10 11 11 11 10 10 10 9 10 11 12 13 13 11 10 10 9 7 7 8 7 7 8 9 7 6 7 8 8 8 8 8 6 7 10 12 13 12 10 11 10 5 2 3
22 22 21 20 20 20 19 18 18 19 19 19 19 19 20 19 19 18 18 18 18 17 16 16 16 15 14 14 14 14 13 12 13 14 14 13 11 11 10 10 10 11 12 12 12 11 10 10 9 9 10 11 10 9 10 10 10 10 10 9 9 8 8 9 9 8 8 9 9 10 9 9 9 8 8 10 9 8 10 10 9 9 7 3 2
22 22 22 21 19 19 20 19 18 18 18 18 18 18 18 18 18 18 18 18 18 18 17 17 16 15 14 14 14 14 13 12 12 13 13 12 12 11 11 11 11 12 12 12 12 11 10 10 9 8 7 8 8 8 8 10 10 10 9 8 9 9 9 10 9 9 9 10 10 11 10 10 10 10 10 10 10 8 10 10 7 8 8 2 1
22 22 22 22 21 20 20 20 20 20 19 19 18 17 17 18 18 17 17 17 17 17 17 17 16 16 15 14 14 14 13 13 13 14 13 12 12 11 10 11 12 12 12 12 12 11 11 10 9 6 6 7 8 8 8 9 10 9 7 6 6 7 8 9 9 8 7 9 11 11 9 8 10 10 9 9 10 11 12 10 6 5 4 5 5
23 24 23 23 22 21 20 20 20 20 19 19 18 17 17 17 18 17 16 16 16 16 17 17 16 15 15 14 14 14 14 15 15 16 15 13 13 12 11 11 12 13 13 12 11 10 8 8 8 7 9 11 10 9 9 9 10 9 7 6 4 3 4 5 5 6 5 6 7 7 6 6 8 9 9 8 9 9 9 7 3 3 8 11 10
24 24 23 23 22 22 21 20 19 18 17 16 16 16 16 17 17 17 17 17 17 17 17 16 16 15 16 16 15 15 16 17 17 17 16 14 13 13 12 12 13 13 12 11 9 8 7 7 9 10 13 14 13 12 11 9 9 9 8 7 5 3 4 4 3 3 2 1 1 2 4 6 6 7 7 5 4 4 3 3 3 6 10 11 10
24 24 23 24 23 22 22 20 19 17 15 15 15 15 16 16 17 17 17 16 16 16 16 16 16 16 16 16 16 15 16 18 18 17 16 16 14 13 12 12 12 12 12 10 8 8 8 8 9 10 11 12 13 13 12 10 9 8 7 6 4 4 3 2 2 1 1 2 2 2 1 1 2 3 3 1 1 1 2 3 4 6 8 9 9
24 23 24 25 24 23 23 20 18 17 15 14 15 14 14 15 15 15 16 16 17 17 17 16 16 16 16 16 15 15 15 16 18 18 17 16 14 12 11 11 11 11 10 9 8 8 8 9 10 10 9 10 12 13 11 10 10 7 7 7 6 5 3 2 4 4 3 4 4 5 5 4 4 5 3 2 3 4 4 4 3 5 7 7 7
21 21 23 25 24 23 23 19 16 16 15 14 14 14 13 13 13 14 14 15 16 16 15 14 14 14 14 14 13 13 13 14 16 16 15 14 11 10 10 10 10 10 9 8 8 8 9 10 10 9 8 10 13 12 9 8 7 5 8 10 10 9 9 8 8 8 7 6 6 5 4 5 5 5 4 2 3 5 5 5 4 7 10 8 6
18 20 20 21 19 16 16 15 13 13 14 14 14 13 13 13 12 11 12 12 13 13 13 12 12 12 12 11 11 11 10 12 14 13 12 11 10 9 8 8 8 8 8 9 9 10 11 11 11 10 10 11 13 10 8 8 7 6 9 13 12 12 12 11 10 10 8 7 6 6 6 7 8 8 8 6 6 7 8 8 8 10 11 9 6
13 16 14 13 13 13 11 11 12 12 13 13 12 12 11 11 10 10 10 10 10 10 10 11 11 11 11 10 10 9 9 9 12 13 11 10 11 10 8 7 7 7 8 9 10 11 12 11 10 10 10 12 12 10 9 9 7 8 12 14 13 13 13 12 10 9 9 8 9 9 9 9 10 11 11 12 12 12 12 10 9 9 9 8 6
8 10 8 7 9 11 10 10 11 13 12 12 11 12 12 11 10 10 9 9 9 9 9 11 12 11 10 10 10 11 11 10 11 13 12 10 11 11 8 7 8 8 8 10 11 12 11 9 8 9 8 9 11 11 10 8 7 10 14 14 12 13 15 14 12 12 12 12 12 10 9 9 9 10 11 12 12 12 12 12 11 10 9 8 8
5 8 9 7 6 7 8 10 11 12 13 12 12 12 12 11 10 10 10 10 11 11 12 15 15 12 9 8 8 9 11 10 10 11 11 10 10 10 9 8 10 10 9 10 11 11 9 7 7 8 8 8 10 11 9 7 7 8 10 11 13 15 17 16 15 16 16 14 11 8 8 8 8 9 10 10 11 11 12 13 13 13 13 12 12
5 7 7 7 6 6 7 7 7 8 9 10 12 12 12 12 11 11 12 13 14 15 14 15 15 11 8 8 7 6 7 9 8 8 9 9 9 10 10 11 11 11 9 9 10 10 8 7 8 9 9 9 10 9 7 7 7 7 8 11 14 17 18 17 17 17 16 12 9 8 8 8 8 9 9 10 10 11 12 13 14 14 15 14 14
6 7 8 8 8 9 7 4 5 6 6 7 9 10 11 11 10 10 12 13 14 15 13 12 12 11 9 8 7 5 6 7 8 7 7 7 8 8 8 9 10 10 8 7 8 8 7 7 8 9 9 8 6 6 7 7 7 8 9 12 16 17 18 19 18 16 13 10 9 9 8 7 8 9 9 10 11 12 12 13 13 13 13 13 13
10 11 11 10 10 10 10 7 6 6 6 6 6 8 9 10 10 11 12 12 12 13 12 10 11 11 10 9 8 6 6 7 8 7 5 5 5 5 5 6 8 9 8 7 9 8 7 6 4 4 5 5 4 6 10 11 10 11 14 16 19 20 20 19 17 13 11 10 10 9 8 8 9 10 10 10 10 10 10 10 10 10 11 11 12
11 11 12 12 11 11 11 11 9 7 6 5 3 4 6 7 8 10 11 10 9 9 9 9 9 9 9 9 10 10 9 8 8 6 4 4 4 4 4 5 6 9 9 8 7 5 5 6 8 8 8 9 10 13 16 17 17 17 18 18 19 18 16 14 12 11 10 10 10 9 9 9 10 10 9 8 8 8 7 7 7 7 7 8 10
10 10 10 11 12 12 13 12 11 10 9 9 8 5 4 5 7 7 7 6 5 5 6 8 9 9 10 10 10 12 11 9 8 7 6 5 5 5 6 7 8 9 10 8 8 12 14 15 16 16 16 18 19 20 21 20 20 18 16 15 15 14 12 11 10 10 10 10 10 10 10 9 9 8 7 7 7 6 5 4 5 6 6 6 7
11 11 10 10 11 13 14 15 16 15 14 13 12 11 11 11 11 9 7 6 7 7 8 9 9 10 10 9 9 10 10 9 9 9 8 9 9 8 7 9 9 11 14 16 18 19 20 19 19 20 21 22 21 20 19 17 16 15 14 13 13 12 11 11 11 10 10 10 10 9 9 8 7 7 6 6 6 6 5 5 5 5 5 5 5
12 12 11 10 11 12 13 15 18 20 20 19 17 15 13 11 12 11 9 8 8 9 10 10 9 8 8 7 7 7 8 9 10 10 10 11 12 11 11 12 13 15 18 20 21 20 20 19 18 18 18 18 17 15 15 14 14 14 13 13 13 12 12 12 12 11 10 10 9 9 8 7 6 6 6 7 7 6 6 6 6 5 5 5 5
12 12 11 11 10 11 13 14 15 18 21 23 23 21 18 14 13 12 11 9 9 10 11 11 9 7 7 8 7 7 9 11 12 12 11 12 13 14 14 14 15 17 18 19 18 17 17 16 15 14 15 15 15 15 15 15 15 14 13 13 12 13 12 12 12 11 10 9 9 8 7 7 6 6 6 7 7 6 6 6 5 5 5 4 5
12 11 11 10 10 10 12 12 12 13 15 18 20 22 22 22 20 17 15 13 12 12 12 11 10 9 11 12 12 12 13 13 12 12 13 12 12 12 13 14 16 19 19 16 14 14 15 14 14 13 14 14 15 15 15 15 14 14 13 13 12 12 12 11 11 11 10 9 8 7 7 6 6 6 7 7 6 6 6 5 5 5 4 4 5
12 12 11 10 10 10 11 12 12 13 14 14 15 16 18 21 23 22 20 18 17 17 16 14 13 13 14 15 16 15 14 14 13 13 14 13 12 11 12 15 18 18 16 14 13 13 13 13 12 13 13 14 15 15 15 14 14 13 13 12 12 11 11 11 11 10 10 9 8 7 7 7 7 7 7 6 5 5 5 5 4 4 4 4 5
13 12 11 11 11 11 11 11 12 13 13 13 13 13 14 15 18 20 21 20 20 19 18 16 15 15 14 14 15 16 16 15 15 15 15 14 13 12 13 16 18 16 13 13 13 13 13 13 13 13 13 14 15 15 14 13 13 12 11 12 12 11 11 11 11 10 9 8 8 7 7 7 7 7 6 6 5 5 5 4 4 3 3 3 3
14 14 13 13 13 13 12 12 11 12 11 11 11 12 13 13 14 15 16 17 17 16 16 15 14 13 13 13 14 15 16 16 16 16 15 13 13 13 15 17 16 13 12 12 13 13 13 13 13 13 14 14 14 14 14 13 12 11 11 11 11 10 11 11 10 9 9 8 7 7 7 7 6 6 6 5 5 4 4 3 3 3 3 3 3
15 15 14 14 13 13 13 12 12 11 11 11 11 11 11 11 11 11 11 11 11 11 11 11 10 10 11 12 13 14 15 16 16 15 14 14 14 15 15 14 13 11 11 12 13 12 12 13 13 13 13 13 13 12 12 12 11 11 11 11 10 11 11 10 9 9 9 8 7 7 7 7 7 6 6 5 4 3 3 3 4 4 4 5 4
14 13 13 13 13 12 12 12 11 11 10 11 11 11 11 11 11 11 11 10 10 10 10 10 10 11 11 11 12 14 15 15 14 13 13 13 13 11 10 11 11 11 12 12 12 12 12 12 12 12 12 12 12 11 11 11 10 10 10 11 11 12 11 10 10 10 9 8 8 8 8 7 7 6 5 4 3 2 3 3 3 3 5 7 7
12 13 12 12 12 12 12 12 11 11 11 11 11 11 11 11 11 11 11 11 10 10 10 10 10 11 11 11 12 13 14 14 13 12 12 11 9 7 7 9 10 11 11 11 11 10 10 11 11 11 11 11 11 10 10 10 10 10 10 10 11 12 11 11 11 10 9 9 9 8 7 7 7 5 3 2 1 1 1 0 1 2 4 2 4
12 12 12 12 12 13 13 12 12 12 12 12 11 11 11 11 11 11 11 11 10 10 9 9 9 10 10 10 12 14 15 14 12 12 11 10 9 9 10 10 10 10 10 9 9 9 9 9 9 10 10 10 9 9 9 9 9 9 10 10 11 12 12 12 12 11 10 9 8 7 7 6 5 4 2 1 0 0 0 2 5 4 1 2 5
13 13 12 12 12 12 12 12 11 11 12 12 12 12 12 11 11 11 11 10 10 10 9 9 9 10 10 11 12 14 14 11 10 10 9 8 9 9 9 9 9 9 9 8 8 8 8 7 7 7 7 7 8 8 8 8 8 9 10 10 12 13 13 12 11 10 9 7 7 7 5 4 4 2 1 1 0 1 1 3 5 6 7 7 8
12 12 11 11 12 12 11 12 12 12 11 12 12 12 12 12 11 11 11 11 10 10 10 10 10 9 9 10 10 10 9 8 8 8 8 8 8 8 7 8 8 8 8 8 7 7 7 7 6 6 6 6 6 6 7 7 7 8 8 10 11 11 11 10 10 9 8 7 7 6 5 4 4 3 1 1 1 1 2 4 5 5 6 7 7
10 10 9 10 11 11 11 11 11 11 11 11 11 11 11 11 11 11 11 11 11 10 10 10 9 9 9 10 9 7 7 8 8 7 7 7 7 6 6 7 7 7 7 7 7 6 6 6 6 6 6 6 6 6 6 7 7 7 7 8 8 9 9 9 9 8 7 7 7 6 5 4 3 2 2 3 1 1 3 5 6 7 7 7 6
9 9 9 8 8 9 9 9 10 9 9 10 10 9 9 9 9 9 9 9 10 10 10 10 9 9 11 12 11 8 7 7 7 7 7 7 7 7 7 7 7 7 7 7 7 6 6 6 6 6 6 6 6 6 6 6 6 6 6 7 7 8 8 8 8 7 7 7 6 5 4 4 3 1 2 2 1 3 4 5 6 6 6 6 5
8 8 8 7 7 7 8 8 8 8 8 8 8 8 8 8 8 7 7 7 8 8 9 9 9 9 11 12 11 8 6 7 7 7 7 7 7 8 7 7 7 7 7 7 7 7 6 6 6 6 6 6 5 5 5 5 5 5 5 6 6 6 7 7 7 7 7 6 5 5 4 4 3 2 1 1 3 3 3 4 5 5 6 6 6
6 7 7 7 7 6 6 6 6 7 7 7 7 7 6 6 6 6 6 5 5 6 7 9 9 8 9 10 8 5 4 6 7 6 6 7 7 7 6 7 7 7 7 7 7 7 7 7 7 7 7 7 6 5 5 4 4 5 5 6 6 6 7 7 7 6 6 6 6 5 4 3 2 2 1 1 3 4 4 3 2 3 5 6 6
5 5 6 6 6 6 6 6 6 7 7 7 7 6 5 5 5 5 5 5 5 5 5 7 8 7 7 7 6 4 4 5 5 5 6 6 6 6 6 6 7 7 7 7 7 7 7 7 7 8 8 7 6 6 6 5 4 4 4 5 6 6 6 6 6 5 5 5 5 4 3 3 2 2 2 2 3 5 5 3 1 2 4 4 5
3 4 4 5 5 6 6 6 6 6 6 6 6 6 5 4 4 4 4 4 4 5 5 5 6 6 6 6 6 5 5 5 5 5 5 5 5 5 6 7 7 8 8 8 9 8 8 8 8 8 8 7 7 7 7 7 7 7 6 6 7 6 6 6 6 6 5 5 4 3 3 2 1 1 2 2 1 1 2 2 2 2 2 3 4
3 3 4 5 5 5 6 6 5 5 4 4 4 4 4 4 4 4 4 4 4 4 5 5 5 5 5 5 6 6 5 6 6 5 5 4 5 5 6 7 8 8 8 8 9 9 9 9 8 8 8 9 8 8 8 8 9 9 9 9 9 9 9 9 8 7 6 5 3 3 2 2 1 2 2 2 2 3 2 1 1 0 1 2 4
4 4 4 5 6 6 6 6 5 4 4 4 3 3 2 2 3 4 5 5 5 4 4 4 5 5 4 4 5 5 5 5 5 5 5 5 6 6 6 7 8 8 9 9 9 9 9 9 9 9 10 10 10 10 10 10 10 10 11 11 10 10 11 10 8 6 6 5 3 3 3 2 2 3 4 3 4 3 2 1 1 1 2 3 5
5 5 5 6 6 5 6 5 5 4 4 3 2 2 2 2 3 3 3 4 4 3 3 3 4 4 4 4 5 5 5 5 5 5 6 6 7 7 8 9 9 9 9 9 9 9 10 10 10 11 11 11 11 11 11 11 11 11 12 12 11 10 9 8 6 6 5 4 4 4 4 5 6 6 6 5 4 3 2 1 2 2 3 5 6
6 6 6 6 5 5 5 4 3 3 3 2 2 3 3 3 3 3 3 3 3 3 3 3 3 3 4 4 5 5 5 5 6 6 6 7 8 8 9 9 9 9 9 9 9 10 10 10 11 12 12 12 12 12 11 11 12 12 12 11 9 7 6 5 5 7 7 6 5 5 7 7 7 7 6 5 4 3 2 2 3 4 5 6 7
7 6 5 5 5 4 4 4 3 3 3 3 3 3 3 3 3 3 3 3 3 3 3 2 2 3 4 4 4 4 5 5 6 7 7 8 8 8 8 8 9 9 9 10 10 10 10 11 11 12 12 12 12 12 12 12 12 11 10 8 6 5 4 4 5 8 10 8 7 7 8 7 7 6 5 3 3 3 2 1 3 5 6 7 6
Wind_Direction
195 196 198 199 199 199 200 201 203 206 207 208 210 210 209 209 210 207 205 206 204 204 208 211 209 209 211 210 210 209 210 215 216 213 214 216 220 228 225 217 226 238 243 249 253 253 251 252 258 261 262 269 275 278 280 278 279 284 285 289 292 290 284 281 285 293 299 301 300 302 308 307 295 280 281 283 283 291 298 291 282 281 278 267 266
196 196 198 201 201 201 201 201 203 206 208 209 211 212 211 210 211 209 207 206 206 208 210 210 210 211 211 211 212 212 212 216 220 219 217 218 221 227 228 225 230 237 240 244 247 247 244 244 250 252 250 255 265 274 282 287 293 294 291 291 292 293 289 283 288 294 295 296 297 297 298 293 286 279 275 277 283 287 288 285 281 276 274 266 251
196 195 197 201 203 203 204 203 204 206 209 210 211 212 212 210 210 211 211 209 207 209 212 209 208 209 211 212 212 215 217 218 222 223 220 219 222 229 232 227 227 233 237 239 240 240 238 240 244 248 250 253 262 274 283 291 292 290 292 294 292 294 293 281 277 284 291 295 295 296 297 293 288 283 273 274 278 278 279 284 285 276 272 271 241
196 194 195 200 202 204 206 206 206 206 208 210 210 211 212 209 208 210 213 213 209 208 210 210 207 207 211 213 213 216 219 220 222 223 222 223 224 229 233 231 232 235 238 239 239 238 239 243 246 249 253 257 263 276 282 282 280 279 286 292 289 291 290 278 272 277 287 293 295 297 297 293 288 283 278 280 279 277 277 285 291 285 276 276 235
199 196 196 199 201 203 206 208 207 207 208 210 210 210 210 209 207 207 210 213 211 207 208 211 210 210 214 216 216 217 219 222 224 225 225 225 226 228 230 230 233 235 236 236 236 238 239 241 244 245 251 256 262 273 275 271 271 274 281 287 288 287 285 281 276 276 281 285 289 292 290 288 289 284 281 282 279 276 271 269 281 288 279 259 219
198 198 201 202 201 203 206 208 209 209 210 212 212 210 210 210 207 205 208 211 211 209 208 211 214 215 218 220 220 220 221 223 224 226 229 229 228 230 230 231 233 234 234 233 232 235 234 235 240 244 248 254 261 269 267 263 267 270 274 280 282 280 278 273 267 268 272 275 279 286 285 284 285 283 281 279 280 282 272 257 251 255 267 257 220
196 195 201 205 203 202 204 207 210 211 211 212 214 213 212 212 210 208 207 209 211 212 211 212 215 217 220 223 224 222 222 224 224 224 227 230 230 231 233 235 236 234 233 231 230 231 231 235 241 244 244 248 256 262 262 262 266 266 264 268 273 276 274 269 263 266 272 275 280 284 286 288 287 282 274 264 262 267 265 263 260 248 242 244 244
199 194 196 201 204 204 203 205 209 212 212 213 216 217 216 215 213 211 210 210 212 214 214 214 215 217 220 223 225 224 221 221 222 221 223 227 230 232 234 236 238 237 233 229 228 231 235 242 247 249 247 245 250 257 260 263 266 268 266 262 264 273 278 278 276 276 279 283 286 284 285 288 280 276 279 279 277 272 262 258 268 265 232 188 189
203 201 198 197 200 203 204 203 205 207 208 211 214 217 219 219 218 216 215 215 215 216 217 218 218 219 221 222 224 225 223 221 220 218 218 223 228 232 235 236 236 238 237 234 233 234 241 249 255 256 250 246 251 259 267 269 269 274 277 266 261 267 277 281 277 274 278 282 285 284 282 275 264 264 284 297 297 292 285 271 268 276 264 162 186
206 207 206 201 197 199 203 204 203 203 204 206 209 212 216 218 218 219 219 219 220 220 220 221 222 221 221 221 223 225 226 226 222 218 216 220 229 236 238 238 238 240 242 243 242 243 248 254 256 258 263 266 268 275 282 276 264 261 260 255 258 262 269 275 274 272 274 277 283 283 276 275 274 270 277 281 280 281 286 282 277 284 289 255 253
213 211 211 210 202 197 198 201 202 202 202 204 206 209 213 216 217 218 219 219 219 219 220 221 223 224 224 224 226 228 231 230 223 219 223 230 237 241 242 242 242 242 244 246 246 247 250 252 252 256 268 277 280 284 286 277 264 259 253 249 253 255 257 269 276 280 277 274 277 278 274 279 287 287 282 278 274 271 278 279 275 281 282 267 283
219 217 213 212 207 200 197 197 199 201 202 205 208 210 214 216 217 218 219 219 217 216 217 218 219 223 226 228 230 231 232 230 223 222 231 240 243 246 248 249 249 248 248 249 250 250 250 252 254 251 254 270 281 275 268 266 265 263 254 246 249 251 250 254 261 271 278 280 281 281 281 283 285 289 293 293 294 289 284 283 274 275 281 258 137
222 222 216 211 208 204 199 196 197 200 202 205 207 210 214 215 216 218 219 220 220 218 217 218 219 223 226 228 232 232 231 229 227 228 235 241 244 248 251 252 254 257 257 258 258 258 255 254 253 244 244 270 281 266 246 246 250 249 241 237 242 250 253 254 257 266 273 278 282 285 290 292 291 296 302 301 300 295 291 294 291 293 335 55 82
220 222 218 211 207 205 203 200 198 199 201 202 203 206 211 213 214 215 216 217 219 218 219 219 219 221 223 225 229 230 230 230 229 232 237 240 244 251 255 254 254 256 258 259 260 258 250 243 240 240 253 265 267 255 243 234 229 224 218 207 196 216 255 268 287 298 294 284 286 293 302 302 297 299 302 298 294 295 305 322 338 60 73 79 82
217 218 216 211 207 204 204 203 201 200 200 200 200 202 207 211 213 213 212 213 213 215 218 220 219 219 218 219 223 227 229 230 230 235 241 244 249 257 259 255 253 253 251 247 246 241 231 230 237 246 259 269 269 259 247 232 222 218 205 188 176 198 240 252 264 280 292 311 291 278 286 291 292 296 300 304 305 306 337 24 77 99 96 93 85
217 215 212 210 208 203 202 203 202 201 199 199 202 204 205 209 212 213 214 214 213 213 215 217 218 217 215 216 220 223 226 228 230 235 242 246 251 254 252 248 248 248 243 232 223 223 228 236 245 250 258 268 270 260 245 232 229 220 192 175 183 211 243 262 244 208 158 134 133 130 104 341 346 344 329 1 82 95 100 102 114 113 104 96 82
218 214 209 209 207 201 200 202 201 199 197 198 203 206 207 208 209 210 214 216 216 215 214 214 215 217 217 219 220 223 227 230 233 239 244 247 248 243 236 235 239 240 236 224 212 218 232 241 247 252 257 260 261 259 248 235 234 217 179 171 179 171 152 110 85 82 99 121 118 100 80 57 36 29 32 82 132 145 131 109 120 125 106 90 82
223 217 209 209 207 201 199 200 197 197 197 198 203 207 209 210 207 206 210 216 220 221 219 218 217 217 219 220 223 227 229 231 237 241 243 244 241 231 224 226 229 229 226 218 215 224 237 243 247 255 262 259 258 260 245 225 230 218 179 172 170 156 140 128 113 107 112 113 102 87 66 49 47 50 57 85 153 162 135 103 107 117 104 94 100
229 225 216 210 205 196 193 191 191 197 200 200 205 209 210 211 206 202 207 216 222 221 219 217 214 214 216 217 220 226 227 230 234 231 227 228 223 213 216 223 223 224 223 220 222 229 236 242 249 250 248 247 252 253 227 207 221 229 191 168 160 156 148 140 133 127 124 116 101 90 78 68 67 71 75 85 107 121 112 96 97 110 112 112 120
233 231 225 210 195 185 181 182 187 199 203 201 205 207 208 210 203 196 202 214 219 216 213 214 213 210 208 204 205 210 214 226 229 217 207 210 204 196 204 222 225 225 226 227 231 236 238 244 253 253 248 246 247 240 216 202 210 212 189 166 157 158 151 146 146 140 133 129 119 103 90 82 76 74 74 75 82 91 91 85 84 96 110 114 104
234 229 227 205 178 171 179 185 188 198 203 202 204 208 209 210 203 195 199 207 210 201 195 200 203 199 193 190 193 197 197 205 216 208 199 200 201 199 207 228 231 228 230 236 240 243 243 245 252 260 266 258 242 226 211 203 194 187 179 168 164 164 156 152 155 149 135 125 116 105 95 89 82 77 76 71 71 75 75 74 77 80 84 88 89
207 205 206 192 158 152 176 188 191 197 201 201 205 209 209 210 206 201 198 200 200 194 189 194 197 191 184 185 191 195 193 197 208 208 204 206 207 205 207 219 226 223 226 236 241 241 244 246 249 260 270 252 225 210 204 197 181 175 174 167 164 165 161 158 155 144 130 118 110 104 98 92 85 80 77 73 72 71 71 78 87 90 87 86 88
181 180 180 179 171 168 176 185 192 194 194 198 202 204 205 207 207 203 200 201 200 196 196 200 198 189 180 182 186 190 191 198 207 208 207 209 205 200 204 214 223 224 226 234 236 236 241 246 252 264 263 239 209 193 192 186 171 166 166 159 158 160 157 150 141 132 121 111 103 99 94 91 90 86 80 78 79 80 81 85 89 90 89 88 85
148 146 142 148 161 165 156 156 188 192 187 194 203 206 204 201 200 200 202 205 201 193 194 201 198 191 185 182 182 181 177 185 191 194 201 206 201 198 203 213 228 234 234 233 229 226 236 250 258 259 245 227 208 188 176 168 158 153 150 149 151 151 145 137 130 122 114 106 103 102 98 94 93 92 90 90 90 88 87 86 84 82 81 79 75
118 125 132 136 145 149 138 129 151 178 188 198 212 219 210 196 193 196 199 205 205 196 192 195 194 191 186 178 174 168 161 164 168 173 189 200 194 195 202 214 230 231 226 227 229 230 239 246 241 219 199 188 180 161 147 136 130 132 136 141 143 140 135 131 127 121 118 116 113 110 106 101 98 99 101 99 96 92 88 86 84 81 79 77 75
100 107 115 118 123 129 127 122 124 135 147 153 172 218 219 201 189 189 192 200 205 196 185 184 183 179 172 166 163 158 150 147 150 154 167 174 165 168 184 200 208 206 208 221 225 207 173 144 135 136 136 132 131 131 125 119 120 125 132 138 138 135 134 133 131 128 126 124 120 116 111 106 104 105 105 101 98 94 91 91 90 83 79 78 78
91 91 94 99 104 107 107 108 110 115 119 122 122 130 149 150 143 149 166 180 176 161 154 157 161 157 150 146 147 145 141 142 148 151 152 147 138 140 159 174 186 191 190 180 153 136 131 129 128 125 121 119 118 117 116 117 122 127 133 137 137 137 139 139 136 133 130 127 122 116 113 112 113 112 109 104 98 90 83 85 86 84 83 85 85
90 87 83 81 85 92 96 99 102 103 104 111 113 109 108 112 112 113 124 140 145 147 146 147 152 154 150 146 144 140 138 145 153 153 147 138 130 129 140 150 159 162 153 139 130 127 126 122 119 116 113 112 112 115 118 123 131 138 141 141 140 139 139 137 135 133 130 126 121 118 120 124 122 118 114 104 93 80 71 70 72 78 85 88 88
86 83 82 81 84 91 94 95 96 95 94 96 97 93 95 106 113 111 115 130 145 147 142 141 148 154 153 152 146 137 136 143 146 145 141 136 133 132 132 134 139 141 136 131 127 125 122 119 118 119 119 119 122 127 131 138 145 146 143 143 142 140 140 140 138 135 132 129 127 127 130 127 119 114 109 98 85 75 72 72 76 80 82 82 80
87 80 77 77 81 86 88 89 90 90 90 91 90 87 87 95 104 107 111 124 137 137 132 133 139 145 149 148 140 135 138 136 133 131 127 127 135 139 137 137 138 134 129 128 129 129 129 130 132 135 136 137 138 141 142 144 146 144 142 144 145 144 144 142 137 135 136 136 135 132 127 119 114 111 107 100 93 87 82 81 84 85 81 77 76
93 86 81 80 82 86 90 92 92 93 95 96 96 92 87 84 85 87 92 99 106 110 115 122 130 136 141 136 128 126 128 123 117 115 116 120 133 142 143 144 140 132 130 134 139 140 141 143 146 149 149 145 143 144 144 144 144 144 145 147 145 144 144 140 138 140 141 138 133 127 119 114 112 110 108 106 103 97 93 91 88 81 71 63 60
97 95 92 92 93 93 92 92 94 99 103 103 104 103 95 86 82 80 81 86 92 97 102 107 113 119 122 121 118 119 119 115 111 111 113 118 128 135 139 141 138 134 136 142 145 146 147 148 152 157 154 147 143 143 145 145 146 147 147 145 143 145 144 142 143 144 141 135 132 126 119 113 111 112 113 111 106 101 100 92 81 74 69 65 62
101 100 99 99 97 96 96 95 96 101 101 98 98 101 100 97 93 89 88 89 92 96 100 103 106 109 110 110 111 113 114 114 113 111 110 113 118 123 129 134 135 137 140 141 141 145 148 147 148 150 148 146 146 146 146 145 145 146 144 142 142 142 139 142 147 145 137 134 133 127 121 118 117 118 116 109 103 100 95 86 80 73 62 60 61
99 99 100 102 100 98 99 100 101 103 102 96 95 96 98 102 107 107 105 101 97 95 96 98 101 104 105 105 106 109 113 116 114 112 110 109 113 119 127 132 134 135 138 139 141 145 146 145 145 146 147 147 147 146 147 147 148 147 145 143 142 139 138 144 150 145 139 139 137 129 126 124 124 124 120 114 110 109 104 96 83 65 45 35 29
93 93 94 97 98 98 100 101 101 101 99 94 93 95 95 97 100 104 106 106 104 100 95 92 95 101 104 106 109 114 119 120 117 114 110 108 110 116 123 128 131 132 133 138 142 143 143 143 143 143 145 146 146 146 149 152 154 154 153 150 146 142 144 150 150 147 148 147 136 129 129 130 130 129 124 117 115 114 102 83 66 50 29 13 3
95 93 92 93 95 97 99 98 96 95 95 94 93 94 93 94 94 95 95 98 101 101 97 94 95 98 102 108 114 121 125 124 120 116 114 114 116 121 127 131 130 130 132 138 142 143 145 146 145 145 146 149 152 156 158 158 160 162 163 161 158 156 158 159 156 155 156 149 138 137 140 139 138 136 128 120 116 110 95 86 87 80 47 14 349
96 95 93 93 96 98 99 99 97 96 96 96 97 97 97 96 97 97 96 96 97 99 102 104 103 99 100 105 114 125 130 125 116 111 110 109 107 109 118 121 122 126 131 135 139 144 148 149 150 151 154 159 165 169 169 168 168 167 166 167 169 171 170 165 159 158 156 149 145 146 145 140 140 142 139 131 100 79 95 17 320 125 117 73 330
94 97 96 94 98 101 102 102 103 103 102 101 100 100 100 99 99 99 99 99 101 102 106 109 108 105 106 109 118 127 129 122 113 111 110 105 100 103 109 110 112 118 123 123 130 141 147 153 162 166 168 174 179 181 181 180 177 175 173 172 170 172 170 163 158 158 158 155 151 149 145 144 148 154 160 170 308 20 9 333 341 350 353 287 323
101 103 101 99 101 102 101 102 104 103 103 102 102 103 103 102 103 104 103 105 107 106 106 107 105 104 108 115 124 131 133 129 125 124 122 116 112 114 118 118 117 120 122 123 129 138 141 147 157 164 170 180 186 188 189 187 183 183 183 175 169 171 173 168 162 162 166 162 155 157 163 163 158 162 179 200 311 324 323 338 349 351 341 334 340
111 109 104 103 106 106 104 105 105 103 103 104 104 104 103 103 103 104 104 104 104 104 105 107 106 108 118 128 137 144 145 140 136 134 130 127 125 124 128 131 131 134 137 138 142 147 147 145 144 143 147 158 166 170 171 170 172 177 179 174 171 173 174 172 169 170 172 164 160 168 177 170 165 176 179 114 36 358 343 334 334 339 339 336 336
116 114 109 110 114 113 111 110 108 107 108 109 108 107 107 106 106 106 105 103 103 103 104 104 105 116 133 141 143 144 142 139 138 136 132 132 132 131 130 131 134 139 143 141 141 144 143 139 138 140 139 142 148 151 151 151 157 162 164 167 171 170 168 167 169 169 167 164 170 180 179 169 184 203 136 118 142 304 326 326 323 326 327 325 326
121 121 118 120 123 120 114 111 111 112 114 115 113 113 114 114 114 114 112 110 109 109 108 109 113 126 138 139 133 127 129 134 137 137 136 134 133 132 130 129 131 136 140 142 142 142 139 136 136 137 135 135 140 144 143 146 153 158 160 165 169 168 165 163 162 164 166 168 175 181 166 154 161 122 91 120 249 304 331 327 319 320 321 319 320
123 124 123 122 122 119 118 122 126 125 120 117 117 119 120 121 122 123 125 126 125 123 121 122 126 138 147 145 137 129 131 139 141 142 143 141 141 142 142 138 134 134 136 138 139 139 139 138 134 127 121 119 125 137 148 155 155 151 156 164 166 166 167 165 165 172 175 167 165 169 163 157 165 158 118 294 302 325 335 321 315 316 314 314 315
125 128 129 125 122 121 122 128 130 123 115 113 117 123 131 135 136 136 137 139 144 146 141 137 139 148 156 158 156 156 158 156 155 154 154 153 154 156 152 144 140 140 139 137 134 134 137 137 130 117 109 106 105 113 131 149 153 147 151 158 162 167 173 173 172 175 171 160 163 174 176 178 200 214 220 277 298 303 299 298 311 315 311 316 324
138 139 138 134 132 130 125 124 129 131 130 129 129 131 140 145 146 153 159 159 163 169 159 150 151 158 166 173 184 194 182 168 165 166 166 168 171 170 163 154 148 145 140 134 127 126 131 132 126 117 113 109 103 101 103 107 114 123 138 153 165 174 179 172 167 169 170 170 180 193 196 200 219 240 262 272 283 296 305 316 340 305 305 322 334
143 144 144 138 134 132 129 128 133 137 136 133 131 133 139 141 144 155 162 158 161 169 169 164 165 170 174 183 191 193 186 179 177 175 175 176 174 169 165 161 155 151 147 140 130 123 122 123 122 119 118 116 111 108 104 102 103 105 109 120 132 140 143 142 142 147 152 156 166 179 192 218 231 235 267 287 290 314 336 5 19 327 320 337 329
149 157 156 144 136 134 133 132 133 134 130 125 122 124 125 130 143 154 153 148 156 167 167 166 167 168 172 181 186 186 189 192 186 176 170 167 161 155 155 157 159 158 151 141 131 123 120 119 120 123 126 125 120 115 111 108 107 107 106 109 113 118 119 118 116 119 122 121 124 146 177 225 234 184 167 136 114 117 107 92 102 342 345 345 324
161 162 158 150 149 151 146 142 144 146 137 127 121 117 114 128 154 161 157 158 169 179 177 173 173 170 169 177 181 181 184 189 183 171 163 157 149 140 137 141 148 150 142 132 125 121 119 119 121 125 129 128 123 118 116 113 109 111 118 125 132 134 130 121 112 109 113 113 114 129 148 164 157 141 130 117 109 111 106 92 68 4 347 333 323
160 157 155 155 156 154 149 151 155 153 144 141 147 153 155 160 159 157 158 162 170 178 176 171 172 171 173 180 183 180 177 177 174 167 159 146 133 126 124 124 126 128 126 121 118 119 122 124 124 123 123 124 122 119 117 113 113 121 132 136 136 134 131 123 116 110 109 113 124 131 130 129 128 124 120 117 115 110 102 73 27 354 333 324 324
148 146 147 149 149 144 145 153 157 154 156 173 173 162 162 166 162 159 164 167 164 167 167 163 164 173 184 190 188 178 170 168 169 165 153 135 124 120 120 117 116 117 117 115 116 120 124 127 126 123 121 120 117 112 112 115 122 131 136 134 129 127 126 122 124 125 121 118 122 125 124 125 126 125 125 126 116 94 63 33 8 347 330 325 328
143 143 144 145 147 152 158 164 166 164 165 173 170 163 167 173 166 159 167 172 170 170 172 169 174 186 192 190 179 165 157 159 163 159 146 130 121 119 117 114 113 115 116 117 119 122 123 125 125 122 118 117 116 116 121 128 132 133 132 129 128 132 132 136 149 145 135 124 118 120 122 123 122 120 117 111 95 88 87 21 346 333 323 322 325